sat.trackr.live / text

‹ back to catalog

STARLINK-3647

NORAD 51994 · 2022-025AQ

PAYLOAD ACTIVE UNKNOWN

§ Identity

Operator
Country
US
Launch date
2022-03-09
Launch site
AFETR
Launch vehicle
Mass (kg)
RCS (m²)

Purposes: comms

External: N2YO · Heavens-Above · Gunter

§ Orbital elements

Epoch: 2026-09-20T03:36:41.453856Z

Period
93.85 min
Inclination
53.1611°
Eccentricity
0.0001402
Mean motion
15.34393415 rev/d
Perigee alt
461.8 km
Apogee alt
463.7 km
Semi-major
6,840.9 km
B*
3.5670e-5
RAAN
215.0216°
Arg perigee
89.9448°
Mean anomaly
270.1716°
Rev number
25,042

§ Raw data

STARLINK-36471 51994U 22025AQ  26263.15047979  .00000829  00000+0  35670-4 0  99932 51994  53.1611 215.0216 0001402  89.9448 270.1716 15.34393415250428

JSON: /api/v1/satellites/51994 · /tle

For live sub-satellite position, see the globe view (requires WebGL).

§ Visibility from observer

Set your observer location to see the next 7 days of passes ≥ 10°. The values pass through the URL so the page stays shareable.

No JS? Fill the form by hand. The geolocation button needs JavaScript.